Location: Artiguedieu
(43.5000°N, 0.5454°E)
Time: 00:21:40
(UTC+00:00)

Transit 2A Rocket - Pass Details

Date: 30 July 2021
Orbit: 586 x 916 km, 66.7° (Epoch: 19 September)

Event Time Altitude Azimuth Distance (km) Brightness Sun altitude
Rises 22:11:43 0° 334° (NNW) 3,238 9.7 -23.0°
Reaches altitude 10° 22:14:14 10° 343° (NNW) 2,361 8.6 -23.3°
Maximum altitude 22:19:17 36° 50° (NE) 1,295 6.2 -23.7°
Enters shadow 22:21:11 29° 88° (E) 1,520 6.3 -23.9°
Drops below altitude 10° 22:24:40 10° 116° (ESE) 2,530 - -24.1°
Sets 22:27:26 0° 125° (SE) 3,499 - -24.4°
